Regional Weather Roundup
Issued by NWS Goodland, KS

Home | Current Version | Previous Version | Text Only | Print | Product List | Glossary Off
Versions: 1 2 3 4 5 6 7 8 9 10 11 12 13 14 15 16 17 18 19 20 21 22 23 24 25 26 27 28 29 30 31 32 33 34 35 36 37 38 39 40 41 42 43 44 45 46 47 48 49 50

000
ASUS43 KGLD 231508
RWRGLD

GOODLAND FORECAST AREA HOURLY WEATHER ROUNDUP
NATIONAL WEATHER SERVICE GOODLAND KS
900 AM MDT WED APR 23 2014

...OFFICIAL OBSERVATIONS...

CITY           SKY/WX    TMP DP  RH WIND       PRES   REMARKS
GOODLAND KS    CLOUDY    65  44  46 S18       29.60F
HILL CITY KS   PTSUNNY   69  48  47 S29G36    29.63F
IMPERIAL NEB   CLOUDY    63  45  51 N6        29.54S
MCCOOK NEB     CLOUDY    65  45  48 S13       29.56F
AKRON CO       CLOUDY    62  35  36 NW18G33   29.61R
BURLINGTON CO  CLOUDY    66  43  43 SW24      29.63F
LIMON CO       PTSUNNY   64  36  35 S14G20    29.66F
$$

...UNOFFICIAL OBSERVATIONS...

CITY           SKY/WX    TMP DP  RH WIND       PRES   REMARKS
COLBY KS       SUNNY     68  46  45 S26G35    29.60F
LENORA KS        N/A     67  32  27 S26         N/A
LEOTI KS         N/A     68  32  26 SW8         N/A
NORTON KS      SUNNY     64  46  52 S15G23    29.60F
OBERLIN KS     FAIR      66  43  42 S22G33    29.57F
SHARON SPRINGS   N/A     64  46  53 S17G26      N/A
TRIBUNE KS     CLOUDY    68  46  45 S26G32    29.66
WAKEENEY KS      N/A     68  43  41 MISG        N/A
TRENTON NEB      N/A     68  32  26 S13         N/A
KIT CARSON CO    N/A     64  44  49 MISG        N/A
WRAY CO        FAIR      66  43  42 SW20G26   29.54S
$$



USA.gov is the U.S. government's official web portal to all federal, state and local government web resources and services.